SCP
0 0 0 0 0 0 0 0 0 0 0 0 0 -0 0 0 0 0 0 0 0 -0 -0 -0 -0 0 0 0 0 0 0 0
0 0 0 0 0 0 0 0 0 0 0 0 0 0 0 0 0 0 0 -0 -0 -0 -0 0 0 0 0 0 0 0 0 0
0 0 0 0 0 0 0 0 0 0 0 0 0 0 0 0 -0 0 0 0 0 0 0 0 0 0 0 0 0 0 0 0
0 0 0 0 0 0 0 0 0 0 0 0 0 0 0 0 0 0 0 0 0 0 0 0 0 0 0 0 0 0 0 0
0 0 0 0 0 0 0 0 0 0 0 0 0 0 -0 0 0 0 0 0 0 0 0 0 0 0 0 0 0 0 0 0
0 0 0 0 0 0 0 0 0 0 0 0 -0 -0 -0 0 0 0 0 0 0 0 0 0 0 0 0 0 0 0 0 0
0 0 0 0 0 0 0 0 0 0 0 0 -0 0 0 0 0 0 0 0 0 0 0 0 0 0 0 0 0 0 0 0
0 0 0 0 0 0 0 0 0 0 -0 -0 0 0 0 0 0 0 0 0 0 0 0 0 0 0 0 0 0 0 0 0
0 0 0 0 0 0 0 0 0 0 -0 -0 0 0 0 0 0 0 0 0 0 0 0 0 0 0 0 0 0 0 0 0
0 0 0 0 0 0 0 0 0 -0 -0 -0 -0 0 0 0 0 0 0 0 0 0 0 0 0 0 0 0 0 0 0 0
0 0 0 0 0 0 0 0 0 -0 -0 -0 -0 -0 0 0 0 0 0 0 0 0 0 0 0 0 0 0 0 0 0 0
0 0 0 0 0 0 0 0 0 -0 -0 -0 0 0 0 0 0 0 0 0 0 0 0 0 0 0 0 0 0 0 0 0
0 0 0 0 0 0 -0 0 0 -0 -0 -0 0 0 0 0 0 0 0 0 0 0 0 0 0 0 0 0 0 0 0 0
0 0 0 0 0 0 0 0 0 -0 -0 0 0 0 0 0 0 0 0 0 0 0 0 0 0 0 0 0 0 0 0 0
0 0 0 0 0 0 0 0 0 0 -0 -0 -0 -0 0 0 0 0 0 0 0 0 0 0 0 0 0 0 0 0 0 0
0 0 0 0 0 0 0 0 0 -0 -0 -0 -0 -0 0 0 0 0 0 0 0 0 0 0 0 0 0 0 0 0 0 0
0 0 0 0 0 0 0 0 0 -0 -0 -0 -0 0 0 0 0 0 0 0 0 0 0 0 0 0 0 0 0 0 0 0
0 0 0 0 0 0 0 0 0 -0 -0 -0 0 0 0 0 0 0 0 0 0 0 0 0 0 0 0 0 0 0 0 0
0 0 0 0 0 0 -0 -0 -0 -0 -0 -0 0 0 0 0 0 0 0 0 0 0 0 0 0 0 0 0 0 0 0 0
0 0 0 0 0 0 0 -0 -0 -0 -0 -0 -0 0 0 0 0 0 0 0 0 0 0 0 0 0 0 0 0 0 0 0
Wind_Speed_500mb
37 35 28 18 9 11 15 14 6 8 12 12 16 17 19 24 28 28 27 29 31 30 25 22 24 26 22 27 27 30 32 36
39 33 27 18 10 10 10 5 6 6 7 13 13 17 19 21 22 23 25 28 33 38 35 27 24 25 21 22 27 28 32 34
40 35 28 19 12 9 6 2 10 6 10 11 11 15 15 17 18 18 22 25 29 36 39 30 28 24 24 22 27 30 32 34
40 35 29 20 11 9 5 6 12 7 11 8 8 11 13 16 19 20 19 20 23 31 34 31 27 26 25 26 30 31 31 36
42 37 27 18 12 11 10 12 13 15 13 6 5 5 9 14 17 20 18 17 22 26 30 30 31 32 33 32 32 33 34 34
40 34 25 16 13 13 15 18 18 19 10 2 6 10 11 9 13 18 17 16 17 22 26 25 30 30 30 33 35 36 38 39
34 27 20 15 12 14 18 23 24 18 8 3 7 12 11 9 14 19 19 19 20 21 21 23 27 28 26 30 38 40 40 38
31 23 18 16 15 22 22 26 26 19 7 8 16 22 23 23 27 29 28 26 25 22 17 19 24 25 28 34 37 36 36 37
26 20 17 18 20 26 24 30 25 18 11 12 15 17 17 18 20 23 26 28 28 24 17 17 20 24 28 33 37 36 36 35
23 20 20 22 27 31 28 31 23 15 15 11 7 6 9 12 14 15 17 20 24 23 21 19 20 25 30 33 36 36 37 35
22 23 25 25 33 33 32 26 20 19 13 5 1 3 7 11 15 16 16 18 19 21 24 22 23 25 26 28 30 32 33 36
24 28 31 30 35 36 30 25 20 16 7 4 3 2 6 11 18 19 18 18 21 22 21 22 23 22 24 29 33 35 37 35
26 32 32 34 40 34 29 22 18 11 8 3 1 4 6 12 19 23 21 19 24 27 26 25 25 25 24 35 35 34 37 37
32 37 39 43 39 31 27 23 16 10 8 5 4 4 8 16 23 24 21 18 22 24 25 27 30 28 26 28 33 35 37 36
39 48 46 41 34 29 26 22 15 10 7 7 6 6 12 21 25 26 25 18 24 26 29 28 27 31 36 32 33 43 39 36
49 48 42 36 32 27 25 21 15 9 5 7 8 9 16 22 28 29 27 31 33 35 37 38 34 35 37 35 29 37 35 28
47 42 36 31 28 24 26 21 16 12 8 6 8 10 18 25 26 23 26 31 39 39 37 37 35 37 33 32 25 37 29 30
47 40 32 28 25 24 21 19 17 14 11 8 6 12 20 24 24 25 30 34 40 34 34 35 37 35 25 16 28 34 27 32
38 31 30 27 28 22 18 19 18 17 13 10 11 15 22 23 21 27 32 36 35 34 32 35 37 25 23 24 31 31 31 33
36 32 31 28 24 20 16 16 17 16 13 10 12 19 20 21 26 30 32 34 31 29 27 26 32 24 28 22 24 24 31 34
Wind_Direction_500mb
187 195 205 217 253 319 343 358 52 70 58 62 71 62 53 54 55 52 49 46 41 34 30 30 30 32 31 23 20 20 20 17
189 193 201 214 246 309 334 7 136 101 63 94 71 66 62 45 44 37 35 32 29 28 26 29 29 26 23 20 14 10 5 1
191 194 199 213 245 294 301 158 168 137 126 105 78 46 40 29 22 19 17 18 20 21 22 26 26 27 26 11 2 356 355 358
191 195 204 218 246 255 239 185 179 165 147 118 74 57 46 30 22 15 11 10 9 11 12 18 17 18 10 6 6 4 0 351
191 197 207 219 244 232 203 188 174 156 148 119 67 25 8 11 20 20 14 1 359 1 7 22 32 31 30 23 10 2 354 353
189 198 206 224 235 212 194 180 166 157 153 99 346 327 324 343 356 358 7 10 8 5 10 26 29 27 25 23 13 11 8 1
193 199 212 224 223 193 179 175 165 160 158 35 19 36 55 41 31 30 25 23 17 14 23 32 28 24 20 12 11 11 7 3
196 204 219 216 204 189 173 172 166 167 152 116 82 80 81 70 53 45 43 37 30 29 36 31 22 15 9 4 2 3 1 3
198 213 216 195 187 171 171 169 166 169 158 129 101 87 73 57 46 39 35 35 32 29 21 10 3 360 356 356 356 354 357 357
205 200 188 186 173 166 169 167 168 169 160 142 113 71 42 28 18 8 4 11 12 8 3 356 347 343 342 345 349 353 350 349
191 183 179 174 164 164 162 164 163 157 152 157 217 4 12 4 356 343 336 337 338 344 345 346 340 336 340 351 349 347 347 349
184 179 174 171 166 161 160 158 153 155 155 154 143 3 343 349 349 346 333 324 320 322 329 337 337 341 337 336 341 350 347 342
182 174 171 167 161 162 161 162 165 171 168 153 344 323 314 328 337 336 329 322 321 320 313 311 321 331 331 327 325 338 342 337
170 168 163 158 159 164 170 175 181 191 202 229 280 332 335 334 336 333 327 319 327 337 339 321 310 317 322 335 341 327 335 335
165 158 157 160 163 167 176 184 186 186 204 254 277 308 328 333 340 343 348 321 319 319 321 316 315 315 307 315 343 344 331 335
159 160 165 169 172 180 188 188 192 205 225 274 269 296 321 330 330 328 319 325 324 324 327 327 318 309 301 323 308 335 323 324
168 171 178 183 190 195 205 204 204 224 217 243 253 291 318 323 332 340 334 328 324 323 329 333 328 329 324 310 317 338 334 326
179 183 192 191 186 188 201 202 215 216 218 223 264 309 319 328 329 327 328 333 343 334 328 328 331 331 338 328 331 340 337 336
187 188 188 183 169 185 207 220 215 209 224 249 283 312 328 333 331 328 326 329 333 332 335 332 331 335 343 338 337 347 344 349
186 188 186 180 187 200 212 209 208 218 239 263 290 320 326 326 328 325 327 336 342 345 347 347 345 353 354 5 357 355 352 354
Wind_Speed_850mb
37 35 28 18 9 11 15 14 6 8 12 12 16 17 19 24 28 28 27 29 31 30 25 22 24 26 22 27 27 30 32 36
39 33 27 18 10 10 10 5 6 6 7 13 13 17 19 21 22 23 25 28 33 38 35 27 24 25 21 22 27 28 32 34
40 35 28 19 12 9 6 2 10 6 10 11 11 15 15 17 18 18 22 25 29 36 39 30 28 24 24 22 27 30 32 34
40 35 29 20 11 9 5 6 12 7 11 8 8 11 13 16 19 20 19 20 23 31 34 31 27 26 25 26 30 31 31 36
42 37 27 18 12 11 10 12 13 15 13 6 5 5 9 14 17 20 18 17 22 26 30 30 31 32 33 32 32 33 34 34
40 34 25 16 13 13 15 18 18 19 10 2 6 10 11 9 13 18 17 16 17 22 26 25 30 30 30 33 35 36 38 39
34 27 20 15 12 14 18 23 24 18 8 3 7 12 11 9 14 19 19 19 20 21 21 23 27 28 26 30 38 40 40 38
31 23 18 16 15 22 22 26 26 19 7 8 16 22 23 23 27 29 28 26 25 22 17 19 24 25 28 34 37 36 36 37
26 20 17 18 20 26 24 30 25 18 11 12 15 17 17 18 20 23 26 28 28 24 17 17 20 24 28 33 37 36 36 35
23 20 20 22 27 31 28 31 23 15 15 11 7 6 9 12 14 15 17 20 24 23 21 19 20 25 30 33 36 36 37 35
22 23 25 25 33 33 32 26 20 19 13 5 1 3 7 11 15 16 16 18 19 21 24 22 23 25 26 28 30 32 33 36
24 28 31 30 35 36 30 25 20 16 7 4 3 2 6 11 18 19 18 18 21 22 21 22 23 22 24 29 33 35 37 35
26 32 32 34 40 34 29 22 18 11 8 3 1 4 6 12 19 23 21 19 24 27 26 25 25 25 24 35 35 34 37 37
32 37 39 43 39 31 27 23 16 10 8 5 4 4 8 16 23 24 21 18 22 24 25 27 30 28 26 28 33 35 37 36
39 48 46 41 34 29 26 22 15 10 7 7 6 6 12 21 25 26 25 18 24 26 29 28 27 31 36 32 33 43 39 36
49 48 42 36 32 27 25 21 15 9 5 7 8 9 16 22 28 29 27 31 33 35 37 38 34 35 37 35 29 37 35 28
47 42 36 31 28 24 26 21 16 12 8 6 8 10 18 25 26 23 26 31 39 39 37 37 35 37 33 32 25 37 29 30
47 40 32 28 25 24 21 19 17 14 11 8 6 12 20 24 24 25 30 34 40 34 34 35 37 35 25 16 28 34 27 32
38 31 30 27 28 22 18 19 18 17 13 10 11 15 22 23 21 27 32 36 35 34 32 35 37 25 23 24 31 31 31 33
36 32 31 28 24 20 16 16 17 16 13 10 12 19 20 21 26 30 32 34 31 29 27 26 32 24 28 22 24 24 31 34
Wind_Direction_850mb
187 195 205 217 253 319 343 358 52 70 58 62 71 62 53 54 55 52 49 46 41 34 30 30 30 32 31 23 20 20 20 17
189 193 201 214 246 309 334 7 136 101 63 94 71 66 62 45 44 37 35 32 29 28 26 29 29 26 23 20 14 10 5 1
191 194 199 213 245 294 301 158 168 137 126 105 78 46 40 29 22 19 17 18 20 21 22 26 26 27 26 11 2 356 355 358
191 195 204 218 246 255 239 185 179 165 147 118 74 57 46 30 22 15 11 10 9 11 12 18 17 18 10 6 6 4 0 351
191 197 207 219 244 232 203 188 174 156 148 119 67 25 8 11 20 20 14 1 359 1 7 22 32 31 30 23 10 2 354 353
189 198 206 224 235 212 194 180 166 157 153 99 346 327 324 343 356 358 7 10 8 5 10 26 29 27 25 23 13 11 8 1
193 199 212 224 223 193 179 175 165 160 158 35 19 36 55 41 31 30 25 23 17 14 23 32 28 24 20 12 11 11 7 3
196 204 219 216 204 189 173 172 166 167 152 116 82 80 81 70 53 45 43 37 30 29 36 31 22 15 9 4 2 3 1 3
198 213 216 195 187 171 171 169 166 169 158 129 101 87 73 57 46 39 35 35 32 29 21 10 3 360 356 356 356 354 357 357
205 200 188 186 173 166 169 167 168 169 160 142 113 71 42 28 18 8 4 11 12 8 3 356 347 343 342 345 349 353 350 349
191 183 179 174 164 164 162 164 163 157 152 157 217 4 12 4 356 343 336 337 338 344 345 346 340 336 340 351 349 347 347 349
184 179 174 171 166 161 160 158 153 155 155 154 143 3 343 349 349 346 333 324 320 322 329 337 337 341 337 336 341 350 347 342
182 174 171 167 161 162 161 162 165 171 168 153 344 323 314 328 337 336 329 322 321 320 313 311 321 331 331 327 325 338 342 337
170 168 163 158 159 164 170 175 181 191 202 229 280 332 335 334 336 333 327 319 327 337 339 321 310 317 322 335 341 327 335 335
165 158 157 160 163 167 176 184 186 186 204 254 277 308 328 333 340 343 348 321 319 319 321 316 315 315 307 315 343 344 331 335
159 160 165 169 172 180 188 188 192 205 225 274 269 296 321 330 330 328 319 325 324 324 327 327 318 309 301 323 308 335 323 324
168 171 178 183 190 195 205 204 204 224 217 243 253 291 318 323 332 340 334 328 324 323 329 333 328 329 324 310 317 338 334 326
179 183 192 191 186 188 201 202 215 216 218 223 264 309 319 328 329 327 328 333 343 334 328 328 331 331 338 328 331 340 337 336
187 188 188 183 169 185 207 220 215 209 224 249 283 312 328 333 331 328 326 329 333 332 335 332 331 335 343 338 337 347 344 349
186 188 186 180 187 200 212 209 208 218 239 263 290 320 326 326 328 325 327 336 342 345 347 347 345 353 354 5 357 355 352 354